Santa Fe, NM

6:25 PM MDT on April 25, 2017 (GMT -0600)
Santa Fe Municipal

Weather History for KSAF - March, 2014

Change the Weather History Date:

Saturday, March 1, 2014

  Actual Average Record
Temperature  
Mean Temperature 42 °F -  
Max Temperature 55 °F 0 °F 66 °F (1999)
Min Temperature 30 °F - 12 °F (1998)
Degree Days  
Heating Degree Days 22    
Moisture  
Dew Point 33 °F    
Average Humidity 74    
Maximum Humidity 97    
Minimum Humidity 37    
Precipitation  
Precipitation 0.44 in - - ()
Sea Level Pressure  
Sea Level Pressure 29.85 in    
Wind  
Wind Speed 6 mph (SW)    
Max Wind Speed 17 mph    
Max Gust Speed 23 mph    
Visibility 9 miles    
Events Rain    
Averages and records for this station are not official NWS values.
T = Trace of Precipitation, MM = Missing Value Source: NWS Daily Summary

Daily Weather History Graph

Daily Weather History Graph

Search for Another Location

Airport or City:

Trip Planner

Search our weather history database for the weather conditions in past years. The results will help you decide how hot, cold, wet, or windy it might be!

Date:

Astronomy

Mar. 01, 2014 Rise Set
Actual Time 6:34 AM MST 5:59 PM MST
Civil Twilight 6:08 AM MST 6:25 PM MST
Nautical Twilight 5:39 AM MST 6:54 PM MST
Astronomical Twilight 5:09 AM MST 7:24 PM MST
Moon 6:31 AM MST (3/1) 6:47 PM MST (3/1)
Length of Visible Light 12h 16m
Length of Day
11h 25m
New Moon, 0% of the Moon is Illuminated
Mar 1
New Moon
Mar 8
First Quarter
Mar 16
Full
Mar 23
Last Quarter
Mar 30
New

Hourly Weather History & Observations

Time (MST) Temp. Windchill Dew Point Humidity Pressure Visibility Wind Dir Wind Speed Gust Speed Precip Events Conditions
12:53 AM 33.1 °F 28.7 °F 21.9 °F 64% 29.85 in 10.0 mi NNW 4.6 mph - N/A   Clear
1:53 AM 30.9 °F 23.5 °F 21.0 °F 67% 29.81 in 10.0 mi NNW 8.1 mph - N/A   Clear
2:53 AM 36.0 °F 33.3 °F 23.0 °F 59% 29.77 in 10.0 mi NW 3.5 mph - N/A   Clear
3:53 AM 35.1 °F - 23.0 °F 61% 29.78 in 10.0 mi Calm Calm - N/A   Clear
4:53 AM 36.0 °F 33.3 °F 21.9 °F 57% 29.79 in 10.0 mi NNW 3.5 mph - N/A   Clear
5:53 AM 37.0 °F 33.3 °F 23.0 °F 57% 29.80 in 10.0 mi NE 4.6 mph - N/A   Partly Cloudy
6:53 AM 41.0 °F 38.0 °F 25.0 °F 53% 29.80 in 10.0 mi SE 4.6 mph - N/A   Mostly Cloudy
7:53 AM 42.1 °F - 27.0 °F 55% 29.84 in 10.0 mi Calm Calm - N/A   Overcast
8:53 AM 50.0 °F - 27.0 °F 41% 29.81 in 10.0 mi South 6.9 mph - N/A   Overcast
9:53 AM 51.1 °F - 27.0 °F 39% 29.82 in 10.0 mi West 3.5 mph - N/A   Overcast
10:53 AM 51.1 °F - 28.9 °F 43% 29.84 in 10.0 mi West 12.7 mph - 0.00 in Rain Light Rain
11:53 AM 55.9 °F - 30.0 °F 37% 29.78 in 10.0 mi SW 17.3 mph - 0.00 in   Mostly Cloudy
12:53 PM 46.9 °F - 42.1 °F 83% 29.83 in 9.0 mi WSW 10.4 mph 23.0 mph 0.02 in Rain Light Rain
1:15 PM 45.0 °F 39.3 °F 41.0 °F 86% 29.91 in 5.0 mi NW 11.5 mph - 0.02 in Rain Light Rain
1:53 PM 45.0 °F 42.6 °F 42.1 °F 90% 29.86 in 3.0 mi West 4.6 mph - 0.07 in Rain Light Rain
2:22 PM 45.0 °F 41.2 °F 41.0 °F 86% 29.92 in 4.0 mi SW 6.9 mph - 0.04 in Rain Light Rain
2:53 PM 45.0 °F 40.1 °F 41.0 °F 86% 29.84 in 6.0 mi West 9.2 mph - 0.06 in Rain Light Rain
3:53 PM 43.0 °F 38.2 °F 39.9 °F 89% 29.86 in 10.0 mi SSW 8.1 mph - 0.02 in Rain Light Rain
4:29 PM 42.1 °F 34.9 °F 37.9 °F 85% 29.96 in 4.0 mi WSW 13.8 mph - 0.05 in Rain Light Rain
4:53 PM 42.1 °F 35.7 °F 39.0 °F 89% 29.90 in 6.0 mi WSW 11.5 mph - 0.08 in Rain Light Rain
5:53 PM 41.0 °F 37.1 °F 39.0 °F 93% 29.91 in 6.0 mi South 5.8 mph - 0.08 in Rain Light Rain
6:37 PM 41.0 °F 37.1 °F 39.0 °F 93% 29.98 in 10.0 mi SE 5.8 mph - 0.05 in Rain Light Rain
6:53 PM 41.0 °F 37.1 °F 39.0 °F 93% 29.88 in 10.0 mi East 5.8 mph - 0.05 in Rain Light Rain
7:35 PM 39.9 °F 35.1 °F 39.0 °F 97% 29.98 in 10.0 mi ESE 6.9 mph - 0.02 in Rain Light Rain
7:53 PM 39.9 °F 33.4 °F 37.9 °F 93% 29.88 in 8.0 mi East 10.4 mph - 0.03 in Rain Light Rain
8:53 PM 41.0 °F - 37.9 °F 89% 29.85 in 10.0 mi Calm Calm - 0.01 in Rain Light Rain
9:53 PM 41.0 °F - 39.0 °F 93% 29.85 in 10.0 mi Calm Calm - 0.02 in Rain Light Rain
10:53 PM 39.9 °F 35.8 °F 37.9 °F 93% 29.84 in 10.0 mi South 5.8 mph - 0.00 in   Mostly Cloudy
11:53 PM 39.9 °F 35.1 °F 37.0 °F 89% 29.82 in 10.0 mi South 6.9 mph - N/A   Overcast